Cape Cleare AK (46076)

Conditions for Thursday

Daily
Weekly
Monthly
Marine Data Graph

Marine & Boating Location Search

Enter a coastal zip code for marine weather.

General Information

Location: 59.498 North -147.983 West
Buoy Type: 6-meter NOMAD buoy
Buoy Hull: 6N61
Payload: ARES payload
Owned by: NDBC
Windspeed: Measured by obtained from anemometer
Sea Surface: Measured by Intake
Note: Station 46076 stopped transmitting 10/28/11. This buoy will be restored to service when it can be worked into the schedule.  When the service date is known, it will be posted in the maintenance report.

Weather and Wave Data

Time Temp Humidity Wind Dominant Wave Wind Wave Wave Swell Pressure
  Air
(°F)
Water
(°F)
  Dir Speed
(kts)
Speed
(mph)
Period
(sec)
Height
(ft)
Range
(ft)
Period
(sec)
Height
(ft)
Range
(ft)
Period
(sec)
Height
(ft)
Range
(ft)
Atmo.
(in)
Tend.
(in)
20:50 26 40 52 WSW 21.4 24.6 11 6.89 exactly 6.9 6 4.92 4.10 - 5.74 11 4.92 4.10 - 5.74 29.87 +0.03
21:50 26 40 50 WSW 21.4 24.6 7 7.22 exactly 7.2 7 6.56 5.74 - 7.38 8 3.28 2.46 - 4.10 29.89 +0.04
22:50 26 40 44 WSW 19.4 22.4 - - - - - - 29.91 +0.05
23:50 26 40 47 WSW 19.4 22.4 7 6.89 exactly 6.9 7 6.56 5.74 - 7.38 8 3.28 2.46 - 4.10 29.92 +0.05
00:50 26 40 45 WSW 21.4 24.6 6 7.55 exactly 7.5 6 6.56 5.74 - 7.38 11 3.28 2.46 - 4.10 29.93 +0.03
01:50 26 40 41 WSW 19.4 22.4 7 7.22 exactly 7.2 7 6.56 5.74 - 7.38 8 3.28 2.46 - 4.10 29.94 +0.03
02:50 25 40 42 WSW 17.5 20.1 10 6.89 exactly 6.9 7 4.92 4.10 - 5.74 10 3.28 2.46 - 4.10 29.96 +0.04
03:50 25 40 45 West 17.5 20.1 6 5.91 exactly 5.9 6 4.92 4.10 - 5.74 10 3.28 2.46 - 4.10 29.97 +0.04
04:50 25 40 40 WSW 15.6 17.9 10 5.58 exactly 5.6 5 4.92 4.10 - 5.74 10 3.28 2.46 - 4.10 29.98 +0.03
05:50 25 40 40 West 15.6 17.9 11 5.25 exactly 5.2 6 4.92 4.10 - 5.74 11 3.28 2.46 - 4.10 29.98 +0.02
06:50 25 40 40 WSW 11.7 13.4 11 5.25 exactly 5.2 5 3.28 2.46 - 4.10 11 4.92 4.10 - 5.74 29.98 +0.01
07:50 25 40 42 West 9.7 11.2 11 5.25 exactly 5.2 4 1.64 0.82 - 2.46 11 4.92 4.10 - 5.74 29.99 +0.01
08:50 25 40 42 West 5.8 6.7 10 5.25 exactly 5.2 4 1.64 0.82 - 2.46 10 4.92 4.10 - 5.74 30.00 +0.01
09:50 26 40 40 West 1.9 2.2 9 4.27 exactly 4.3 3 1.64 0.82 - 2.46 9 4.92 4.10 - 5.74 29.99 +0.01
10:50 26 40 41 SSW 1.9 2.2 10 4.27 exactly 4.3 4 1.64 0.82 - 2.46 10 3.28 2.46 - 4.10 30.00 +0.01
11:50 26 40 42 North 1.9 2.2 10 4.59 exactly 4.6 4 1.64 0.82 - 2.46 10 4.92 4.10 - 5.74 30.00 -
12:50 26 40 41 NNE 1.9 2.2 8 4.27 exactly 4.3 4 1.64 0.82 - 2.46 8 3.28 2.46 - 4.10 30.00 -
13:50 26 40 43 North 1.9 2.2 10 4.59 exactly 4.6 4 1.64 0.82 - 2.46 10 4.92 4.10 - 5.74 30.00 -
14:50 26 40 44 North 5.8 6.7 9 4.27 exactly 4.3 4 1.64 0.82 - 2.46 9 3.28 2.46 - 4.10 29.99 -0.01
15:50 26 40 44 NNE 5.8 6.7 8 3.94 exactly 3.9 4 1.64 0.82 - 2.46 8 3.28 2.46 - 4.10 29.99 -0.01
16:50 27 40 43 North 5.8 6.7 10 3.94 exactly 3.9 3 1.64 0.82 - 2.46 10 3.28 2.46 - 4.10 29.97 -0.02
17:50 28 40 43 NNE 7.8 8.9 9 3.61 exactly 3.6 3 1.64 0.82 - 2.46 9 3.28 2.46 - 4.10 29.96 -0.02
18:50 28 40 42 NNE 7.8 8.9 10 3.94 exactly 3.9 4 1.64 0.82 - 2.46 10 3.28 2.46 - 4.10 29.96 -0.02
19:50 29 40 47 NNE 9.7 11.2 10 3.28 exactly 3.3 5 1.64 0.82 - 2.46 10 3.28 2.46 - 4.10 29.96 -0.01
20:50 28 40 57 North 13.6 15.7 10 3.61 exactly 3.6 3 1.64 0.82 - 2.46 10 3.28 2.46 - 4.10 29.96 -
21:50 28 40 55 North 11.7 13.4 9 2.95 exactly 3.0 3 1.64 0.82 - 2.46 9 1.64 0.82 - 2.46 29.97 -
22:50 28 40 58 North 13.6 15.7 9 3.61 exactly 3.6 4 3.28 2.46 - 4.10 9 1.64 0.82 - 2.46 29.97 +0.01
23:50 28 40 54 North 9.7 11.2 9 3.28 exactly 3.3 4 1.64 0.82 - 2.46 9 1.64 0.82 - 2.46 29.96 -
00:50 29 40 63 NNW 13.6 15.7 10 3.61 exactly 3.6 4 3.28 2.46 - 4.10 10 1.64 0.82 - 2.46 29.95 -0.01
01:50 29 40 63 NNW 13.6 15.7 10 3.28 exactly 3.3 4 3.28 2.46 - 4.10 10 1.64 0.82 - 2.46 29.94 -0.03
02:50 29 40 64 NNW 15.6 17.9 4 3.28 exactly 3.3 4 3.28 2.46 - 4.10 10 1.64 0.82 - 2.46 29.93 -0.04
03:50 28 40 57 NNW 15.6 17.9 4 3.28 exactly 3.3 4 3.28 2.46 - 4.10 10 1.64 0.82 - 2.46 29.92 -0.04

Detailed Wave Spectra

Time Water Depth Wave Height Spectral Peak Period Average Wave Period Sampling Interval Wave Record
20:00 659 ft 7.51 ft 7.1 sec 5.4 sec 0.6 sec 2400 sec
21:00 659 ft 6.92 ft 10.8 sec 5.4 sec 0.6 sec 2400 sec
22:00 659 ft 7.09 ft 7.1 sec 5.3 sec 0.6 sec 2400 sec
00:00 659 ft 6.82 ft 6.7 sec 5.0 sec 0.6 sec 2400 sec
01:00 659 ft 7.41 ft 6.3 sec 5.1 sec 0.6 sec 2400 sec
02:00 659 ft 7.32 ft 6.7 sec 5.1 sec 0.6 sec 2400 sec
03:00 659 ft 6.76 ft 10.0 sec 5.2 sec 0.6 sec 2400 sec
04:00 659 ft 6.04 ft 5.6 sec 5.0 sec 0.6 sec 2400 sec
05:00 659 ft 5.61 ft 10.0 sec 4.9 sec 0.6 sec 2400 sec
06:00 659 ft 5.28 ft 11.4 sec 5.0 sec 0.6 sec 2400 sec
07:00 659 ft 5.28 ft 10.8 sec 5.2 sec 0.6 sec 2400 sec
08:00 659 ft 5.38 ft 10.8 sec 5.6 sec 0.6 sec 2400 sec
09:00 659 ft 5.35 ft 10.0 sec 5.9 sec 0.6 sec 2400 sec
10:00 659 ft 4.40 ft 9.1 sec 5.8 sec 0.6 sec 2400 sec
11:00 659 ft 4.23 ft 10.0 sec 6.0 sec 0.6 sec 2400 sec
12:00 659 ft 4.66 ft 10.0 sec 6.5 sec 0.6 sec 2400 sec
13:00 659 ft 4.17 ft 8.3 sec 6.2 sec 0.6 sec 2400 sec
14:00 659 ft 4.59 ft 10.0 sec 6.6 sec 0.6 sec 2400 sec
15:00 659 ft 4.17 ft 9.1 sec 6.3 sec 0.6 sec 2400 sec
16:00 659 ft 4.04 ft 8.3 sec 6.3 sec 0.6 sec 2400 sec
17:00 659 ft 3.77 ft 10.0 sec 6.3 sec 0.6 sec 2400 sec
18:00 659 ft 3.71 ft 9.1 sec 6.4 sec 0.6 sec 2400 sec
19:00 659 ft 3.84 ft 10.0 sec 6.8 sec 0.6 sec 2400 sec
20:00 659 ft 3.25 ft 10.0 sec 6.2 sec 0.6 sec 2400 sec
21:00 659 ft 3.58 ft 10.0 sec 5.5 sec 0.6 sec 2400 sec
22:00 659 ft 2.89 ft 9.1 sec 3.9 sec 0.6 sec 2400 sec
23:00 659 ft 3.44 ft 9.1 sec 4.2 sec 0.6 sec 2400 sec
00:00 659 ft 3.18 ft 9.1 sec 4.4 sec 0.6 sec 2400 sec
01:00 659 ft 3.44 ft 10.0 sec 4.3 sec 0.6 sec 2400 sec
02:00 659 ft 3.41 ft 10.0 sec 4.3 sec 0.6 sec 2400 sec
03:00 659 ft 3.41 ft 3.8 sec 4.1 sec 0.6 sec 2400 sec